STARLINK-1852 (47139 NORAD) Tracking and Keplerian Element Data
This shows tracking and keplerian element data for the satellite.
Feedback or suggestion? Click here.
Element | Value |
Catalog | 47139 |
Name | STARLINK-1852 |
Epoch Orbit | 175 |
Epoch Day | 59.91667824 |
Epoch Year | 2021 |
RAAN | 262.9031 |
Inclination | 53.0381 |
Eccentricity | 0.000245 |
Argument of Perigee | 88.5031 |
Mean Anonmoly | 36.1786 |
Mean Motion | 15.04744653 |
Decay Rate | 0.00012858 |
L1 | 1 47139U 20088T 21059.91667824 .00012858 00000-0 92030-3 0 9993 |
L2 | 2 47139 53.0381 262.9031 0002450 88.5031 36.1786 15.04744653 1758 |
Live tracking and technical data element details for STARLINK-1852 (NORAD 47139). STARLINK-1852 can be tracked NOW for your location showing map with azimuth and elevation plus other details from your city location.
Track the satellite on the map from your city or location and see movement details for azimuth, elevation, latitude, longitude, range, height, and movement on the map or in text.
IsCatalogInMostPopularTable: catalog: 47139, numindb: 33
Update: records affected: 1
GetName: 47139 STARLINK-1852
Hit Count: updated at: Mon, 01 Mar 2021 21:50:49 GMT